﻿測定場所 (Monitoring sites),日付 (Measurement date),時間 (Measurement time),線量率 最大値 (max) μGy/h,線量率 最小値 (min) μGy/h,線量率 平均値 (average) μGy/h,
大田 (Ota),2013-06-16,23:01～24:00,0.0521,0.0436,0.0476,
大田 (Ota),2013-06-16,22:01～23:00,0.0513,0.0440,0.0481,
大田 (Ota),2013-06-16,21:01～22:00,0.0506,0.0441,0.0478,
大田 (Ota),2013-06-16,20:01～21:00,0.0514,0.0442,0.0480,
大田 (Ota),2013-06-16,19:01～20:00,0.0510,0.0439,0.0475,
大田 (Ota),2013-06-16,18:01～19:00,0.0523,0.0446,0.0476,
大田 (Ota),2013-06-16,17:01～18:00,0.0512,0.0450,0.0479,
大田 (Ota),2013-06-16,16:01～17:00,0.0513,0.0453,0.0483,
大田 (Ota),2013-06-16,15:01～16:00,0.0514,0.0454,0.0485,
大田 (Ota),2013-06-16,14:01～15:00,0.0517,0.0438,0.0484,
大田 (Ota),2013-06-16,13:01～14:00,0.0523,0.0439,0.0484,
大田 (Ota),2013-06-16,12:01～13:00,0.0525,0.0449,0.0489,
大田 (Ota),2013-06-16,11:01～12:00,0.0529,0.0448,0.0492,
大田 (Ota),2013-06-16,10:01～11:00,0.0534,0.0465,0.0498,
大田 (Ota),2013-06-16,09:01～10:00,0.0562,0.0469,0.0522,
大田 (Ota),2013-06-16,08:01～09:00,0.0579,0.0498,0.0545,
大田 (Ota),2013-06-16,07:01～08:00,0.0612,0.0536,0.0571,
大田 (Ota),2013-06-16,06:01～07:00,0.0628,0.0534,0.0582,
大田 (Ota),2013-06-16,05:01～06:00,0.0630,0.0534,0.0584,
大田 (Ota),2013-06-16,04:01～05:00,0.0604,0.0461,0.0533,
大田 (Ota),2013-06-16,03:01～04:00,0.0515,0.0456,0.0485,
大田 (Ota),2013-06-16,02:01～03:00,0.0535,0.0459,0.0493,
大田 (Ota),2013-06-16,01:01～02:00,0.0523,0.0452,0.0484,
大田 (Ota),2013-06-16,00:01～01:00,0.0518,0.0453,0.0478,
大田 (Ota),2013-06-15,23:01～24:00,0.0516,0.0452,0.0482,
大田 (Ota),2013-06-15,22:01～23:00,0.0519,0.0446,0.0482,
大田 (Ota),2013-06-15,21:01～22:00,0.0511,0.0438,0.0480,
大田 (Ota),2013-06-15,20:01～21:00,0.0504,0.0451,0.0477,
大田 (Ota),2013-06-15,19:01～20:00,0.0507,0.0448,0.0478,
大田 (Ota),2013-06-15,18:01～19:00,0.0524,0.0454,0.0480,
大田 (Ota),2013-06-15,17:01～18:00,0.0504,0.0436,0.0479,
大田 (Ota),2013-06-15,16:01～17:00,0.0521,0.0442,0.0477,
大田 (Ota),2013-06-15,15:01～16:00,0.0513,0.0447,0.0481,
大田 (Ota),2013-06-15,14:01～15:00,0.0514,0.0444,0.0480,
大田 (Ota),2013-06-15,13:01～14:00,0.0521,0.0445,0.0477,
大田 (Ota),2013-06-15,12:01～13:00,0.0522,0.0456,0.0483,
大田 (Ota),2013-06-15,11:01～12:00,0.0512,0.0452,0.0479,
大田 (Ota),2013-06-15,10:01～11:00,0.0511,0.0439,0.0475,
大田 (Ota),2013-06-15,09:01～10:00,0.0509,0.0447,0.0474,
大田 (Ota),2013-06-15,08:01～09:00,0.0511,0.0443,0.0476,
大田 (Ota),2013-06-15,07:01～08:00,0.0519,0.0440,0.0474,
大田 (Ota),2013-06-15,06:01～07:00,0.0510,0.0446,0.0475,
大田 (Ota),2013-06-15,05:01～06:00,0.0507,0.0443,0.0474,
大田 (Ota),2013-06-15,04:01～05:00,0.0515,0.0441,0.0478,
大田 (Ota),2013-06-15,03:01～04:00,0.0505,0.0440,0.0474,
大田 (Ota),2013-06-15,02:01～03:00,0.0522,0.0437,0.0474,
大田 (Ota),2013-06-15,01:01～02:00,0.0515,0.0443,0.0478,
大田 (Ota),2013-06-15,00:01～01:00,0.0514,0.0429,0.0474,
大田 (Ota),2013-06-14,23:01～24:00,0.0506,0.0438,0.0475,
大田 (Ota),2013-06-14,22:01～23:00,0.0521,0.0451,0.0477,
大田 (Ota),2013-06-14,21:01～22:00,0.0494,0.0432,0.0470,
大田 (Ota),2013-06-14,20:01～21:00,0.0520,0.0448,0.0474,
大田 (Ota),2013-06-14,19:01～20:00,0.0500,0.0441,0.0472,
大田 (Ota),2013-06-14,18:01～19:00,0.0507,0.0443,0.0473,
大田 (Ota),2013-06-14,17:01～18:00,0.0500,0.0438,0.0474,
大田 (Ota),2013-06-14,16:01～17:00,0.0508,0.0441,0.0475,
大田 (Ota),2013-06-14,15:01～16:00,0.0503,0.0434,0.0471,
大田 (Ota),2013-06-14,14:01～15:00,0.0503,0.0442,0.0475,
大田 (Ota),2013-06-14,13:01～14:00,0.0504,0.0444,0.0472,
大田 (Ota),2013-06-14,12:01～13:00,0.0512,0.0449,0.0477,
大田 (Ota),2013-06-14,11:01～12:00,0.0505,0.0443,0.0474,
大田 (Ota),2013-06-14,10:01～11:00,0.0502,0.0438,0.0471,
大田 (Ota),2013-06-14,09:01～10:00,0.0501,0.0436,0.0473,
大田 (Ota),2013-06-14,08:01～09:00,0.0499,0.0441,0.0471,
大田 (Ota),2013-06-14,07:01～08:00,0.0506,0.0452,0.0482,
大田 (Ota),2013-06-14,06:01～07:00,0.0520,0.0468,0.0491,
大田 (Ota),2013-06-14,05:01～06:00,0.0533,0.0461,0.0493,
大田 (Ota),2013-06-14,04:01～05:00,0.0513,0.0452,0.0479,
大田 (Ota),2013-06-14,03:01～04:00,0.0512,0.0436,0.0476,
大田 (Ota),2013-06-14,02:01～03:00,0.0514,0.0441,0.0475,
大田 (Ota),2013-06-14,01:01～02:00,0.0508,0.0447,0.0477,
大田 (Ota),2013-06-14,00:01～01:00,0.0514,0.0447,0.0486,
大田 (Ota),2013-06-13,23:01～24:00,0.0523,0.0460,0.0487,
大田 (Ota),2013-06-13,22:01～23:00,0.0526,0.0463,0.0488,
大田 (Ota),2013-06-13,21:01～22:00,0.0528,0.0439,0.0479,
大田 (Ota),2013-06-13,20:01～21:00,0.0507,0.0449,0.0473,
大田 (Ota),2013-06-13,19:01～20:00,0.0505,0.0431,0.0472,
大田 (Ota),2013-06-13,18:01～19:00,0.0507,0.0443,0.0472,
大田 (Ota),2013-06-13,17:01～18:00,0.0530,0.0455,0.0490,
大田 (Ota),2013-06-13,16:01～17:00,0.0532,0.0462,0.0499,
大田 (Ota),2013-06-13,15:01～16:00,0.0539,0.0473,0.0495,
大田 (Ota),2013-06-13,14:01～15:00,0.0525,0.0457,0.0485,
大田 (Ota),2013-06-13,13:01～14:00,0.0524,0.0458,0.0484,
大田 (Ota),2013-06-13,12:01～13:00,0.0520,0.0447,0.0484,
大田 (Ota),2013-06-13,11:01～12:00,0.0544,0.0449,0.0492,
大田 (Ota),2013-06-13,10:01～11:00,0.0505,0.0437,0.0472,
大田 (Ota),2013-06-13,09:01～10:00,0.0506,0.0444,0.0475,
大田 (Ota),2013-06-13,08:01～09:00,0.0517,0.0459,0.0484,
大田 (Ota),2013-06-13,07:01～08:00,0.0508,0.0452,0.0479,
大田 (Ota),2013-06-13,06:01～07:00,0.0524,0.0436,0.0487,
大田 (Ota),2013-06-13,05:01～06:00,0.0531,0.0462,0.0494,
大田 (Ota),2013-06-13,04:01～05:00,0.0523,0.0464,0.0492,
大田 (Ota),2013-06-13,03:01～04:00,0.0518,0.0450,0.0485,
大田 (Ota),2013-06-13,02:01～03:00,0.0517,0.0454,0.0490,
大田 (Ota),2013-06-13,01:01～02:00,0.0524,0.0460,0.0490,
大田 (Ota),2013-06-13,00:01～01:00,0.0530,0.0461,0.0486,
大田 (Ota),2013-06-12,23:01～24:00,0.0512,0.0444,0.0478,
大田 (Ota),2013-06-12,22:01～23:00,0.0522,0.0450,0.0479,
大田 (Ota),2013-06-12,21:01～22:00,0.0520,0.0454,0.0479,
大田 (Ota),2013-06-12,20:01～21:00,0.0522,0.0441,0.0486,
大田 (Ota),2013-06-12,19:01～20:00,0.0521,0.0446,0.0485,
大田 (Ota),2013-06-12,18:01～19:00,0.0509,0.0446,0.0482,
大田 (Ota),2013-06-12,17:01～18:00,0.0513,0.0449,0.0482,
大田 (Ota),2013-06-12,16:01～17:00,0.0510,0.0448,0.0478,
大田 (Ota),2013-06-12,15:01～16:00,0.0517,0.0462,0.0486,
大田 (Ota),2013-06-12,14:01～15:00,0.0523,0.0449,0.0482,
大田 (Ota),2013-06-12,13:01～14:00,0.0521,0.0437,0.0484,
大田 (Ota),2013-06-12,12:01～13:00,0.0513,0.0454,0.0481,
大田 (Ota),2013-06-12,11:01～12:00,0.0518,0.0444,0.0481,
大田 (Ota),2013-06-12,10:01～11:00,0.0510,0.0449,0.0484,
大田 (Ota),2013-06-12,09:01～10:00,0.0522,0.0441,0.0494,
大田 (Ota),2013-06-12,08:01～09:00,0.0530,0.0462,0.0498,
大田 (Ota),2013-06-12,07:01～08:00,0.0549,0.0463,0.0503,
大田 (Ota),2013-06-12,06:01～07:00,0.0541,0.0467,0.0508,
大田 (Ota),2013-06-12,05:01～06:00,0.0528,0.0468,0.0494,
大田 (Ota),2013-06-12,04:01～05:00,0.0517,0.0444,0.0486,
大田 (Ota),2013-06-12,03:01～04:00,0.0527,0.0463,0.0492,
大田 (Ota),2013-06-12,02:01～03:00,0.0538,0.0460,0.0498,
大田 (Ota),2013-06-12,01:01～02:00,0.0537,0.0459,0.0491,
大田 (Ota),2013-06-12,00:01～01:00,0.0525,0.0457,0.0498,
大田 (Ota),2013-06-11,23:01～24:00,0.0528,0.0449,0.0487,
大田 (Ota),2013-06-11,22:01～23:00,0.0518,0.0452,0.0488,
大田 (Ota),2013-06-11,21:01～22:00,0.0536,0.0460,0.0496,
大田 (Ota),2013-06-11,20:01～21:00,0.0528,0.0455,0.0492,
大田 (Ota),2013-06-11,19:01～20:00,0.0545,0.0455,0.0498,
大田 (Ota),2013-06-11,18:01～19:00,0.0537,0.0479,0.0502,
大田 (Ota),2013-06-11,17:01～18:00,0.0553,0.0468,0.0514,
大田 (Ota),2013-06-11,16:01～17:00,0.0536,0.0468,0.0501,
大田 (Ota),2013-06-11,15:01～16:00,0.0528,0.0472,0.0498,
大田 (Ota),2013-06-11,14:01～15:00,0.0519,0.0452,0.0498,
大田 (Ota),2013-06-11,13:01～14:00,0.0540,0.0471,0.0504,
大田 (Ota),2013-06-11,12:01～13:00,0.0553,0.0484,0.0514,
大田 (Ota),2013-06-11,11:01～12:00,0.0541,0.0475,0.0509,
大田 (Ota),2013-06-11,10:01～11:00,0.0538,0.0466,0.0502,
大田 (Ota),2013-06-11,09:01～10:00,0.0536,0.0467,0.0502,
大田 (Ota),2013-06-11,08:01～09:00,0.0549,0.0464,0.0518,
大田 (Ota),2013-06-11,07:01～08:00,0.0559,0.0477,0.0511,
大田 (Ota),2013-06-11,06:01～07:00,0.0544,0.0472,0.0502,
大田 (Ota),2013-06-11,05:01～06:00,0.0525,0.0471,0.0497,
大田 (Ota),2013-06-11,04:01～05:00,0.0535,0.0460,0.0496,
大田 (Ota),2013-06-11,03:01～04:00,0.0538,0.0458,0.0496,
大田 (Ota),2013-06-11,02:01～03:00,0.0528,0.0466,0.0499,
大田 (Ota),2013-06-11,01:01～02:00,0.0523,0.0460,0.0493,
大田 (Ota),2013-06-11,00:01～01:00,0.0539,0.0450,0.0501,
大田 (Ota),2013-06-10,23:01～24:00,0.0522,0.0467,0.0496,
大田 (Ota),2013-06-10,22:01～23:00,0.0546,0.0456,0.0498,
大田 (Ota),2013-06-10,21:01～22:00,0.0528,0.0470,0.0500,
大田 (Ota),2013-06-10,20:01～21:00,0.0534,0.0465,0.0500,
大田 (Ota),2013-06-10,19:01～20:00,0.0527,0.0461,0.0497,
大田 (Ota),2013-06-10,18:01～19:00,0.0543,0.0458,0.0499,
大田 (Ota),2013-06-10,17:01～18:00,0.0524,0.0454,0.0496,
大田 (Ota),2013-06-10,16:01～17:00,0.0538,0.0459,0.0501,
大田 (Ota),2013-06-10,15:01～16:00,0.0530,0.0458,0.0497,
大田 (Ota),2013-06-10,14:01～15:00,0.0529,0.0464,0.0496,
大田 (Ota),2013-06-10,13:01～14:00,0.0523,0.0457,0.0497,
大田 (Ota),2013-06-10,12:01～13:00,0.0535,0.0471,0.0499,
大田 (Ota),2013-06-10,11:01～12:00,0.0537,0.0461,0.0497,
大田 (Ota),2013-06-10,10:01～11:00,0.0530,0.0458,0.0497,
大田 (Ota),2013-06-10,09:01～10:00,0.0530,0.0469,0.0499,
大田 (Ota),2013-06-10,08:01～09:00,0.0528,0.0466,0.0499,
大田 (Ota),2013-06-10,07:01～08:00,0.0541,0.0476,0.0505,
大田 (Ota),2013-06-10,06:01～07:00,0.0555,0.0472,0.0501,
大田 (Ota),2013-06-10,05:01～06:00,0.0539,0.0465,0.0502,
大田 (Ota),2013-06-10,04:01～05:00,0.0547,0.0473,0.0503,
大田 (Ota),2013-06-10,03:01～04:00,0.0531,0.0474,0.0501,
大田 (Ota),2013-06-10,02:01～03:00,0.0535,0.0476,0.0496,
大田 (Ota),2013-06-10,01:01～02:00,0.0532,0.0465,0.0499,
大田 (Ota),2013-06-10,00:01～01:00,0.0529,0.0474,0.0501,
